{"data":{"norad_id":66718,"epoch":"2026-09-18T10:45:18.444096Z","epoch_age_seconds":199194,"freshness":"STALE","line1":"1 66718U 25276BE  26261.44813014  .00014972  00000+0  66866-3 0  9999","line2":"2 66718  97.4135 333.4289 0004462  64.1406 296.0290 15.21441517 44588","mean_motion":15.21441517,"eccentricity":0.0004462,"inclination_deg":97.4135,"raan_deg":333.4289,"arg_perigee_deg":64.1406,"mean_anomaly_deg":296.029,"bstar":0.00066866,"rev_number":4458,"period_min":94.647081988364,"perigee_km":498.42200461568,"apogee_km":504.56138526305,"semimajor_km":6879.6286949394,"source":"CELESTRAK","updated_at":"2026-09-20T09:00:34.750469Z"}}